Content
SEND FEEDBACK

Daily
Averages
Monthly
Summary
Canada

STE. DOROTHEE, QUEBEC


Home > North America > Canada > Quebec
Elevation: 75 feet     Latitude: 45 31N     Longitude: 73 47W

WEATHER
 
SELECT A DAY
Number of Records: 198,744;   Date Range: 1/1/95 - 9/15/14
 
SHARE

PRINT THIS DATA

[ ← Previous Day ]
WEATHER ALMANAC - FEBRUARY 28, 2013
[ Next Day → ]
[ °C ]   °F
Weather ElementAverageHighLow
Temperature32.5 °F34 °F (1:00 pm)31 °F (7:00 am)
Dewpoint30.5 °F32 °F (12:00 pm)28.4 °F (9:00 pm)
Humidity91.8 %93 % (12:48 am)86 % (1:00 pm)
Barometer29.63 in29.68 in (10:00 pm)29.59 in (5:00 am)
Wind Speed12.2 mph20.7 mph (12:48 am)
Wind Gust25.3 mph (1:00 am)
Weather ElementAverage
Visibility5.5 mi
Wind DirectionNE (41.1 °)

Weather ElementTotal
Precipitation---
Heating Degree Days32.5 (Base 65)
Averaged from 38 records on February 28, 2013
WEATHER CONDITIONS BREAKOUT
WIND DIRECTION BREAKOUT
WEATHER BY HOUR - FEBRUARY 28, 2013
[ °C ]   °F
Local TimeTemperatureDewpointHumidityBarometerVisibilityWind DirectionWind SpeedGust SpeedPrecipitationEventsConditions
12:48 AM32.0 °F30.2 °F93 %29.67 in2.0 miENE (60°)20.7 mphSnowLight Snow
1:00 AM32.0 °F30.0 °F90 %29.66 in3.0 miENE (60°)19.6 mphSnowLight Snow
1:00 AM32.0 °F30.2 °F93 %29.66 in3.0 miENE (60°)18.4 mph25.3 mphSnowLight Snow
2:00 AM32.0 °F30.2 °F93 %29.64 in4.0 miENE (60°)19.6 mphSnowLight Snow
3:00 AM32.0 °F30.2 °F93 %29.62 in5.0 miENE (60°)18.4 mphSnowLight Snow
4:00 AM32.0 °F30.2 °F93 %29.60 in4.0 miENE (60°)13.8 mph21.9 mphSnowLight Snow
5:00 AM32.0 °F30.2 °F93 %29.59 in4.0 miENE (60°)16.1 mphSnowLight Snow
5:38 AM32.0 °F30.2 °F93 %29.59 in2.5 miENE (60°)13.8 mphSnowLight Snow
6:00 AM32.0 °F30.2 °F93 %29.59 in3.0 miENE (60°)12.7 mphSnowLight Snow
6:37 AM32.0 °F30.2 °F93 %29.59 in2.0 miENE (60°)10.4 mphSnowLight Snow
7:00 AM31.0 °F30.0 °F93 %29.60 in1.0 miENE (60°)11.5 mphSnowLight Snow
7:00 AM32.0 °F30.2 °F93 %29.60 in1.5 miENE (60°)11.5 mphSnowLight Snow
7:27 AM32.0 °F30.2 °F93 %29.60 in3.0 miENE (60°)10.4 mphSnowLight Snow
8:00 AM32.0 °F30.2 °F93 %29.60 in2.5 miNE (50°)9.2 mphSnowLight Snow
8:15 AM32.0 °F30.2 °F93 %29.60 in3.0 miNE (50°)10.4 mphSnowLight Snow
8:51 AM32.0 °F30.2 °F93 %29.61 in3.0 miNE (50°)8.1 mphSnowLight Snow
9:00 AM32.0 °F30.2 °F93 %29.61 in2.5 miNE (50°)10.4 mphSnowLight Snow
9:37 AM32.0 °F30.2 °F93 %29.61 in3.0 miNE (40°)9.2 mphSnowLight Snow
10:00 AM32.0 °F30.2 °F93 %29.61 in2.5 miNE (50°)11.5 mphSnowLight Snow
10:26 AM32.0 °F30.2 °F93 %29.61 in3.0 miNE (50°)8.1 mphSnowLight Snow
11:00 AM32.0 °F30.2 °F93 %29.61 in4.0 miNE (40°)10.4 mphSnowLight Snow
11:34 AM33.8 °F30.2 °F87 %29.61 in7.0 miNE (40°)9.2 mphOvercast
12:00 PM33.8 °F32.0 °F93 %29.61 in7.0 miNE (40°)9.2 mphOvercast
1:00 PM34.0 °F31.0 °F86 %29.62 in7.0 miNE (40°)9.2 mphPartly Cloudy
1:00 PM33.8 °F32.0 °F93 %29.62 in8.0 miNE (40°)9.2 mphOvercast
2:00 PM33.8 °F32.0 °F93 %29.62 in8.0 miNNE (20°)9.2 mphOvercast
3:00 PM33.8 °F32.0 °F93 %29.62 in8.0 miNNE (30°)9.2 mphOvercast
4:00 PM33.8 °F32.0 °F93 %29.63 in8.0 miNorth (10°)11.5 mphOvercast
4:18 PM33.8 °F32.0 °F93 %29.63 in8.0 miNNE (20°)11.5 mphOvercast
5:00 PM33.8 °F32.0 °F93 %29.64 in7.0 miNNE (20°)11.5 mphOvercast
6:00 PM33.8 °F32.0 °F93 %29.66 in7.0 miNNE (20°)10.4 mphOvercast
7:00 PM33.0 °F31.0 °F87 %29.67 in7.0 miNNE (20°)12.7 mphOvercast
7:00 PM33.8 °F30.2 °F87 %29.67 in8.0 miNNE (20°)12.7 mphOvercast
8:00 PM32.0 °F30.2 °F93 %29.67 in8.0 miNNE (20°)13.8 mphOvercast
8:08 PM32.0 °F30.2 °F93 %29.67 in8.0 miNNE (20°)11.5 mph18.4 mphSnowLight Snow
9:00 PM32.0 °F28.4 °F87 %29.67 in10.0 miNorth (10°)15.0 mphOvercast
10:00 PM32.0 °F28.4 °F87 %29.68 in15.0 miNNE (20°)10.4 mphOvercast
11:00 PM32.0 °F28.4 °F87 %29.67 in15.0 miNorth (10°)15.0 mphOvercast
Hourly data recorded from CYUL, located miles away from Ste. Dorothee, Quebec







STORIES FROM OUR PARTNERS